Location: Cuiry
(49.3858°N, 3.7708°E)
Time: 22:34:01
(UTC+00:00)

COSMO-SKYMED 1 - Pass Details

Date: 12 January 2026
Orbit: 578 x 579 km, 97.9° (Epoch: 7 February)

Event Time Altitude Azimuth Distance (km) Brightness Sun altitude
Exits shadow 17:09:47 12° 58° (ENE) 1,750 4.2 -9.5°
Maximum altitude 17:11:47 16° 90° (E) 1,521 4.0 -9.8°
Drops below altitude 10° 17:14:24 10° 131° (SE) 1,890 4.8 -10.2°
Sets 17:17:14 0° 152° (SSE) 2,782 5.8 -10.6°
